TimeAKST,TemperatureF,Dew PointF,Humidity,Sea Level PressureIn,VisibilityMPH,Wind Direction,Wind SpeedMPH,Gust SpeedMPH,PrecipitationIn,Events,Conditions,WindDirDegrees,DateUTC
12:16 AM,5.0,3.2,92,30.16,10.0,WNW,9.2,-,N/A,,Clear,300,2012-11-13 09:16:00
12:36 AM,5.0,1.4,85,30.15,10.0,NW,9.2,-,N/A,,Clear,320,2012-11-13 09:36:00
12:56 AM,6.8,3.2,85,30.15,10.0,WNW,8.1,-,N/A,,Clear,300,2012-11-13 09:56:00
1:16 AM,6.8,3.2,85,30.14,10.0,NW,6.9,-,N/A,,Clear,310,2012-11-13 10:16:00
1:36 AM,17.6,15.8,93,30.14,10.0,NE,13.8,25.3,N/A,,Clear,40,2012-11-13 10:36:00
1:56 AM,21.2,-0.4,39,30.13,10.0,NNE,3.5,-,N/A,,Clear,30,2012-11-13 10:56:00
2:16 AM,17.6,5.0,58,30.12,10.0,NNW,6.9,-,N/A,,Clear,340,2012-11-13 11:16:00
2:36 AM,21.2,3.2,46,30.08,10.0,NE,26.5,33.4,N/A,,Clear,50,2012-11-13 11:36:00
2:56 AM,23.0,5.0,46,30.09,10.0,North,16.1,25.3,N/A,,Clear,360,2012-11-13 11:56:00
3:16 AM,21.2,10.4,63,30.07,10.0,SE,5.8,20.7,N/A,,Clear,130,2012-11-13 12:16:00
3:36 AM,21.2,8.6,58,30.06,10.0,ENE,11.5,17.3,N/A,,Clear,70,2012-11-13 12:36:00
3:56 AM,21.2,8.6,58,30.04,10.0,ENE,24.2,34.5,N/A,,Clear,60,2012-11-13 12:56:00
4:16 AM,21.2,8.6,58,30.03,10.0,ENE,23.0,34.5,N/A,,Clear,70,2012-11-13 13:16:00
4:36 AM,21.2,8.6,58,30.02,10.0,ENE,28.8,40.3,N/A,,Clear,60,2012-11-13 13:36:00
5:16 AM,21.2,8.6,58,29.98,10.0,ENE,34.5,47.2,N/A,,Clear,60,2012-11-13 14:16:00
5:36 AM,21.2,6.8,54,29.98,10.0,NE,28.8,43.7,N/A,,Clear,50,2012-11-13 14:36:00
5:56 AM,21.2,8.6,58,30.00,10.0,NE,17.3,29.9,N/A,,Clear,50,2012-11-13 14:56:00
6:16 AM,21.2,6.8,54,30.00,10.0,NE,24.2,31.1,N/A,,Clear,40,2012-11-13 15:16:00
6:36 AM,21.2,6.8,54,30.00,10.0,NE,18.4,29.9,N/A,,Clear,50,2012-11-13 15:36:00
6:56 AM,21.2,6.8,54,30.01,10.0,East,8.1,23.0,N/A,,Clear,100,2012-11-13 15:56:00
7:16 AM,21.2,3.2,46,30.02,10.0,ENE,13.8,18.4,N/A,,Clear,70,2012-11-13 16:16:00
7:36 AM,21.2,3.2,46,30.00,10.0,ENE,15.0,-,N/A,,Clear,60,2012-11-13 16:36:00
7:56 AM,21.2,3.2,46,29.99,10.0,ENE,9.2,17.3,N/A,,Clear,60,2012-11-13 16:56:00
8:16 AM,21.2,3.2,46,29.98,10.0,NNE,3.5,-,N/A,,Clear,30,2012-11-13 17:16:00
8:36 AM,21.2,6.8,54,29.96,10.0,NE,13.8,19.6,N/A,,Clear,40,2012-11-13 17:36:00
8:56 AM,21.2,5.0,50,29.94,10.0,NE,18.4,24.2,N/A,,Clear,50,2012-11-13 17:56:00
9:16 AM,21.2,5.0,50,29.93,10.0,NE,21.9,27.6,N/A,,Clear,50,2012-11-13 18:16:00
9:36 AM,21.2,5.0,50,29.92,10.0,NE,20.7,27.6,N/A,,Clear,50,2012-11-13 18:36:00
9:56 AM,21.2,5.0,50,29.92,10.0,NE,24.2,31.1,N/A,,Clear,40,2012-11-13 18:56:00
10:16 AM,19.4,6.8,58,29.91,10.0,NE,23.0,32.2,N/A,,Clear,40,2012-11-13 19:16:00
10:36 AM,19.4,6.8,58,29.90,10.0,NE,25.3,31.1,N/A,,Clear,40,2012-11-13 19:36:00
10:56 AM,21.2,6.8,54,29.89,10.0,NE,19.6,29.9,N/A,,Clear,40,2012-11-13 19:56:00
11:36 AM,21.2,6.8,54,29.89,10.0,NE,18.4,25.3,N/A,,Clear,40,2012-11-13 20:36:00
11:56 AM,21.2,6.8,54,29.88,10.0,NE,16.1,25.3,N/A,,Clear,40,2012-11-13 20:56:00
12:16 PM,21.2,6.8,54,29.88,10.0,North,10.4,20.7,N/A,,Clear,350,2012-11-13 21:16:00
12:36 PM,21.2,6.8,54,29.87,10.0,NNW,8.1,17.3,N/A,,Clear,340,2012-11-13 21:36:00
12:56 PM,23.0,6.8,50,29.86,10.0,North,8.1,17.3,N/A,,Clear,350,2012-11-13 21:56:00
1:16 PM,23.0,6.8,50,29.85,10.0,North,9.2,-,N/A,,Clear,360,2012-11-13 22:16:00
1:36 PM,23.0,6.8,50,29.84,10.0,NNE,16.1,23.0,N/A,,Clear,20,2012-11-13 22:36:00
1:56 PM,23.0,6.8,50,29.82,10.0,NE,19.6,28.8,N/A,,Clear,40,2012-11-13 22:56:00
2:16 PM,21.2,6.8,54,29.82,10.0,NNE,18.4,29.9,N/A,,Clear,20,2012-11-13 23:16:00
2:36 PM,21.2,6.8,54,29.81,9.0,North,13.8,21.9,N/A,,Clear,10,2012-11-13 23:36:00
2:56 PM,21.2,6.8,54,29.79,5.0,North,16.1,23.0,N/A,,Clear,10,2012-11-13 23:56:00
3:16 PM,21.2,6.8,54,29.77,10.0,NNE,24.2,32.2,N/A,,Clear,30,2012-11-14 00:16:00
3:36 PM,21.2,5.0,50,29.74,9.0,NE,31.1,42.6,N/A,,Clear,40,2012-11-14 00:36:00
3:56 PM,21.2,5.0,50,29.72,10.0,NE,27.6,41.4,N/A,,Clear,50,2012-11-14 00:56:00
4:16 PM,21.2,3.2,46,29.70,9.0,ENE,33.4,43.7,N/A,,Scattered Clouds,60,2012-11-14 01:16:00
4:36 PM,21.2,3.2,46,29.68,9.0,ENE,39.1,49.5,N/A,,Partly Cloudy,60,2012-11-14 01:36:00
4:56 PM,21.2,3.2,46,29.67,10.0,ENE,39.1,48.3,N/A,,Clear,60,2012-11-14 01:56:00
5:16 PM,21.2,3.2,46,29.67,10.0,ENE,39.1,49.5,N/A,,Scattered Clouds,60,2012-11-14 02:16:00
5:36 PM,21.2,3.2,46,29.64,10.0,ENE,42.6,50.6,N/A,,Mostly Cloudy,60,2012-11-14 02:36:00
5:56 PM,21.2,3.2,46,29.65,10.0,ENE,38.0,51.8,N/A,,Partly Cloudy,60,2012-11-14 02:56:00
6:36 PM,21.2,3.2,46,29.64,10.0,ENE,41.4,51.8,N/A,,Partly Cloudy,60,2012-11-14 03:36:00
7:16 PM,21.2,1.4,42,29.62,10.0,ENE,44.9,55.2,N/A,,Clear,60,2012-11-14 04:16:00
7:36 PM,21.2,1.4,42,29.61,10.0,ENE,41.4,51.8,N/A,,Partly Cloudy,60,2012-11-14 04:36:00
7:56 PM,23.0,1.4,39,29.61,10.0,ENE,42.6,51.8,N/A,,Mostly Cloudy,60,2012-11-14 04:56:00
8:16 PM,23.0,1.4,39,29.61,10.0,ENE,39.1,49.5,N/A,,Overcast,60,2012-11-14 05:16:00
8:36 PM,23.0,1.4,39,29.60,10.0,ENE,39.1,49.5,N/A,,Overcast,60,2012-11-14 05:36:00
8:56 PM,23.0,3.2,43,29.60,10.0,ENE,35.7,49.5,N/A,,Overcast,60,2012-11-14 05:56:00
9:16 PM,23.0,1.4,39,29.59,10.0,ENE,38.0,48.3,N/A,,Overcast,60,2012-11-14 06:16:00
9:36 PM,24.8,1.4,36,29.59,10.0,ENE,38.0,46.0,N/A,,Overcast,60,2012-11-14 06:36:00
10:16 PM,24.8,1.4,36,29.58,10.0,ENE,36.8,48.3,N/A,,Overcast,60,2012-11-14 07:16:00
10:36 PM,24.8,1.4,36,29.59,10.0,NE,35.7,46.0,N/A,,Overcast,50,2012-11-14 07:36:00
10:56 PM,24.8,1.4,36,29.58,10.0,NE,34.5,46.0,N/A,,Overcast,50,2012-11-14 07:56:00
11:16 PM,24.8,1.4,36,29.57,10.0,ENE,38.0,44.9,N/A,,Overcast,60,2012-11-14 08:16:00
11:36 PM,26.6,1.4,34,29.58,10.0,ENE,32.2,46.0,N/A,,Overcast,60,2012-11-14 08:36:00
11:56 PM,26.6,1.4,34,29.57,10.0,ENE,34.5,47.2,N/A,,Overcast,60,2012-11-14 08:56:00